OBJECT B

Satellite information

Favourite Embed

Satellite Type and Status

UNKNOWNIN ORBIT

Key statistics

Satellite OBJECT B at a glance.

Uptime

1658

Days in orbit

Revolutions

≈ 13.4

Per day

Orbit

LEO

Low Earth Orbit

Inclination

63.4

Latest

Satellite identification and parameters

Extended collection of information and parameters for OBJECT B.

Object identification

Identified? True

Debris? False

Object name: OBJECT B

International designator: 2021-014B

Object number (NORAD): 47692

Object ID (CCSDS): 47692

Country: PEOPLES REPUBLIC OF CHINA (PRC)

Current information (Y/N): Y

RCS size: LARGE

Orbital parameters

Period: 107.131 minutes

Inclination: 63.4057 deg

SMA: 7471.983 km

Apoapsis: 1202.845 km

Periapsis: 984.852 km

RAAN: 211.9238 deg

Eccentricy: 0.01458735

Argument of periapsis: 0.0359 deg

Mean anomaly: 0.0653 deg

Mean motion: 13.44153696 rev/day

Mean motion (dot): 0.00000032 rev/day2

B* drag term: 0.00019726598 1/REarth

Two-line elements (TLE)

Creation date: Sept. 8, 2025, 6:18 p.m.

Reference frame: TEME

Reference center: EARTH

Epoch: Sept. 8, 2025, 2:50 p.m. UTC

TLE line 0: 0 OBJECT B

TLE line 1: 1 47692U 21014B 25251.61852274 .00000032 00000-0 19727-3 0 9990

TLE line 2: 2 47692 63.4057 211.9238 0145874 0.0359 0.0653 13.44153696222638

Live tracking on map

Real-time ground track for satellite OBJECT B.

In-orbit conjunctions

There are no conjunctions computed for OBJECT B, at the moment. Check back to stay up to date, as we update our databases every day.

Go to all conjunctions

Associated space launch

OBJECT B was lifted into orbit during the mission ‘Long March 4C | Yaogan-31-03’, on board a Long March 4C space rocket.

The launch took place on Feb. 24, 2021, 2:22 a.m. from Launch Area 4 (SLS-2 / 603).

For more information about the launch, click the button.

Launch to space Long March 4C | Yaogan-31-03
Long March 4C | Yaogan-31-03

Agency: N/A

Status: Launch Successful

Launch date: Feb. 24, 2021, 2:22 a.m. UTC

Rocket: Long March 4C

Launch pad: Launch Area 4 (SLS-2 / 603)

Location: Jiuquan Satellite Launch Center, People's Republic of China

...

Latest news about this satellite

News about space launch
Long March 4C launches latest batch of Yaogan- 31 satellites

Three new satellites were launched from the Jiuquan Satellite Launch Center on Wednesday. The new satellites form part of the Group-3 of the Yaogan Weixing-31 mission. The launch took place at 02:22 UTC from Launch Pad 94 of the LC43 launch complex using ...

News about space launch
Another trio of Chinese military satellites successfully deployed

Weeks after the launch of an earlier trio of Chinese military satellites, another trio of spacecraft successfully took off Feb. 24 aboard a Long March 4C rocket on a clandestine mission that analysts believe may involve spying on foreign naval forces.

News about space launch
China launches trio of Yaogan-31 ocean reconnaissance satellites

A Long March 4C rocket sent a latest series of three Yaogan-31 reconnaissance satellites into orbit late Tuesday.


Newsletter sign-up

Weekly statistics, charts and insights to help you stay on top of the space industry.